Location: *
(28.3744°N, 81.5492°W)
Time: 03:12:39
(UTC+00:00)

Cosmos 1624 Rocket - Pass Details

Date: 15 June 2025
Orbit: 753 x 780 km, 74.0° (Epoch: 11 July)

Event Time Altitude Azimuth Distance (km) Brightness Sun altitude
Rises 01:09:21 0° 348° (NNW) 3,244 8.0 -9.3°
Reaches altitude 10° 01:11:45 10° 351° (N) 2,319 7.1 -9.8°
Maximum altitude 01:16:59 65° 73° (ENE) 848 4.1 -10.7°
Enters shadow 01:22:03 11° 155° (SSE) 2,256 5.9 -11.6°
